Location: Brno
(49.2000°N, 16.6330°E)
Time: 18:59:38
(UTC+02:00)

Transit 4A - Pass Details

Date: 02 August 2021
Orbit: 871 x 974 km, 66.8° (Epoch: 16 September)

Event Time Altitude Azimuth Distance (km) Brightness Sun altitude
Rises 23:05:01 0° 166° (SSE) 3,488 - -18.6°
Reaches altitude 10° 23:08:13 10° 149° (SSE) 2,539 - -18.8°
Maximum altitude 23:12:11 19° 106° (ESE) 1,962 - -19.1°
Exits shadow 23:12:24 19° 103° (ESE) 1,964 9.2 -19.2°
Drops below altitude 10° 23:16:08 10° 63° (ENE) 2,528 10.2 -19.4°
Sets 23:19:17 0° 46° (NE) 3,468 11.1 -19.7°
